| time (UTC) | temp C | wind direction | speed KPH | gust KPH | rain 1hr cm | rain 24hr cm | rain mn cm | humidity % | barometer mb |
| 20260502151530 | 12 | 188 | 0.0 | 8.0 | 0.00 | 0.00 | 0.00 | 35 | 1014.5 |
| 20260502130106 | 10 | 144 | 0.0 | 6.4 | 0.00 | 0.00 | 0.00 | 41 | 1014.5 |
| 20260502123033 | 10 | 146 | 0.0 | 6.4 | 0.00 | 0.00 | 0.00 | 42 | 1014.5 |
| 20260502121545 | 10 | 135 | 0.0 | 0.0 | 0.00 | 0.00 | 0.00 | 42 | 1014.5 |
| 20260502114502 | 10 | 139 | 0.0 | 0.0 | 0.00 | 0.00 | 0.00 | 42 | 1014.0 |
| 20260502113134 | 10 | 139 | 0.0 | 0.0 | 0.00 | 0.00 | 0.00 | 41 | 1014.0 |
| 20260502111525 | 10 | 141 | 0.0 | 0.0 | 0.00 | 0.00 | 0.00 | 40 | 1014.0 |
| 20260502110023 | 10 | 144 | 0.0 | 0.0 | 0.00 | 0.00 | 0.00 | 40 | 1013.9 |
| 20260502104534 | 10 | 116 | 0.0 | 0.0 | 0.00 | 0.00 | 0.00 | 40 | 1014.0 |
| 20260502103031 | 10 | 117 | 0.0 | 0.0 | 0.00 | 0.00 | 0.00 | 39 | 1014.0 |
| 20260502101550 | 10 | 114 | 0.0 | 0.0 | 0.00 | 0.00 | 0.00 | 40 | 1014.1 |
| 20260502091524 | 10 | 106 | 0.0 | 0.0 | 0.00 | 0.00 | 0.00 | 44 | 1013.9 |
| 20260502071536 | 11 | 130 | 0.0 | 0.0 | 0.00 | 0.00 | 0.00 | 56 | 1013.3 |
| 20260502070045 | 11 | 130 | 0.0 | 9.7 | 0.00 | 0.00 | 0.00 | 55 | 1013.4 |
| 20260502064557 | 11 | 120 | 0.0 | 4.8 | 0.00 | 0.00 | 0.00 | 55 | 1013.4 |
| 20260502063053 | 11 | 116 | 0.0 | 8.0 | 0.00 | 0.00 | 0.00 | 55 | 1013.5 |
| 20260502061512 | 12 | 172 | 0.0 | 0.0 | 0.00 | 0.00 | 0.00 | 54 | 1013.8 |
| 20260502060014 | 12 | 172 | 0.0 | 0.0 | 0.00 | 0.00 | 0.00 | 54 | 1013.7 |
| 20260502054535 | 12 | 172 | 0.0 | 0.0 | 0.00 | 0.00 | 0.00 | 54 | 1013.5 |
| 20260502053037 | 12 | 172 | 0.0 | 0.0 | 0.00 | 0.00 | 0.00 | 52 | 1013.4 |
| 20260502051604 | 12 | 172 | 0.0 | 0.0 | 0.00 | 0.00 | 0.00 | 52 | 1013.5 |
| 20260502050048 | 13 | 172 | 0.0 | 0.0 | 0.00 | 0.00 | 0.00 | 52 | 1013.5 |
| 20260502044506 | 13 | 170 | 0.0 | 4.8 | 0.00 | 0.00 | 0.00 | 52 | 1013.5 |
| 20260502043016 | 13 | 196 | 0.0 | 12.9 | 0.00 | 0.00 | 0.00 | 52 | 1013.4 |
| 20260502041522 | 13 | 149 | 0.0 | 1.6 | 0.00 | 0.00 | 0.00 | 52 | 1013.4 |
| 20260502040018 | 14 | 129 | 0.0 | 6.4 | 0.00 | 0.00 | 0.00 | 51 | 1013.3 |
| 20260502034526 | 14 | 134 | 0.0 | 12.9 | 0.00 | 0.00 | 0.00 | 51 | 1013.3 |
| 20260502033015 | 15 | 135 | 0.0 | 0.0 | 0.00 | 0.00 | 0.00 | 49 | 1012.9 |
| 20260502031547 | 15 | 146 | 0.0 | 1.6 | 0.00 | 0.00 | 0.00 | 47 | 1012.7 |
| 20260502030047 | 16 | 149 | 0.0 | 0.0 | 0.00 | 0.00 | 0.00 | 44 | 1012.7 |
| 20260502024509 | 16 | 135 | 0.0 | 6.4 | 0.00 | 0.00 | 0.00 | 42 | 1012.4 |
| 20260502023019 | 16 | 160 | 0.0 | 14.5 | 0.00 | 0.00 | 0.00 | 40 | 1012.1 |
| 20260502021541 | 16 | 126 | 0.0 | 8.0 | 0.00 | 0.00 | 0.00 | 44 | 1011.4 |
| 20260502020039 | 17 | 115 | 0.0 | 9.7 | 0.00 | 0.00 | 0.00 | 45 | 1011.3 |
| 20260502014600 | 17 | 125 | 0.0 | 0.0 | 0.00 | 0.00 | 0.00 | 45 | 1011.2 |
| 20260502014503 | 17 | 125 | 0.0 | 0.0 | 0.00 | 0.00 | 0.00 | 45 | 1011.2 |
| 20260502013010 | 17 | 113 | 1.6 | 11.3 | 0.00 | 0.00 | 0.00 | 45 | 1010.8 |
| 20260502011522 | 16 | 62 | 0.0 | 6.4 | 0.00 | 0.00 | 0.00 | 44 | 1010.7 |
| 20260502010026 | 17 | 22 | 0.0 | 6.4 | 0.00 | 0.00 | 0.00 | 43 | 1010.6 |
| 20260502004539 | 17 | 47 | 0.0 | 12.9 | 0.00 | 0.00 | 0.00 | 43 | 1010.3 |
| 20260502003050 | 17 | 82 | 0.0 | 0.0 | 0.00 | 0.00 | 0.00 | 43 | 1010.2 |
| 20260502001508 | 17 | 99 | 0.0 | 6.4 | 0.00 | 0.00 | 0.00 | 43 | 1009.7 |
| 20260502000018 | 17 | 84 | 0.0 | 9.7 | 0.00 | 0.00 | 0.00 | 42 | 1009.3 |
| 20260501234537 | 17 | 359 | 0.0 | 0.0 | 0.00 | 0.00 | 0.00 | 41 | 1009.3 |
| 20260501233029 | 18 | 352 | 0.0 | 0.0 | 0.00 | 0.00 | 0.00 | 40 | 1009.4 |
| 20260501231553 | 18 | 352 | 0.0 | 0.0 | 0.00 | 0.00 | 0.00 | 40 | 1009.4 |
| 20260501224514 | 19 | 332 | 4.8 | 19.3 | 0.00 | 0.00 | 0.00 | 36 | 1009.2 |
| 20260501223015 | 20 | 54 | 6.4 | 19.3 | 0.00 | 0.00 | 0.00 | 35 | 1009.3 |
| 20260501221542 | 20 | 316 | 0.0 | 0.0 | 0.00 | 0.00 | 0.00 | 35 | 1009.6 |
| 20260501220040 | 20 | 53 | 3.2 | 12.9 | 0.00 | 0.00 | 0.00 | 34 | 1009.6 |
| 20260501214555 | 20 | 1 | 1.6 | 20.9 | 0.00 | 0.00 | 0.00 | 34 | 1009.6 |
| 20260501213003 | 20 | 356 | 0.0 | 12.9 | 0.00 | 0.00 | 0.00 | 35 | 1009.9 |
| 20260501211519 | 20 | 301 | 0.0 | 12.9 | 0.00 | 0.00 | 0.00 | 35 | 1010.0 |
| 20260501210027 | 19 | 42 | 0.0 | 9.7 | 0.00 | 0.00 | 0.00 | 36 | 1010.2 |
| 20260501204539 | 19 | 316 | 0.0 | 0.0 | 0.00 | 0.00 | 0.00 | 34 | 1010.2 |
| 20260501203033 | 19 | 347 | 1.6 | 17.7 | 0.00 | 0.00 | 0.00 | 34 | 1010.5 |
| 20260501201555 | 19 | 326 | 4.8 | 14.5 | 0.00 | 0.00 | 0.00 | 34 | 1010.7 |
| 20260501200038 | 19 | 326 | 4.8 | 16.1 | 0.00 | 0.00 | 0.00 | 34 | 1010.8 |
| 20260501194619 | 19 | 316 | 4.8 | 14.5 | 0.00 | 0.00 | 0.00 | 34 | 1011.3 |
| 20260501194503 | 19 | 10 | 3.2 | 14.5 | 0.00 | 0.00 | 0.00 | 33 | 1011.3 |
| 20260501193052 | 20 | 321 | 8.0 | 19.3 | 0.00 | 0.00 | 0.00 | 32 | 1011.5 |
| 20260501191515 | 20 | 16 | 6.4 | 16.1 | 0.00 | 0.00 | 0.00 | 30 | 1011.9 |
| 20260501190030 | 19 | 343 | 1.6 | 19.3 | 0.00 | 0.00 | 0.00 | 32 | 1012.1 |
| 20260501184529 | 19 | 305 | 4.8 | 20.9 | 0.00 | 0.00 | 0.00 | 31 | 1012.2 |
| 20260501183026 | 18 | 292 | 4.8 | 22.5 | 0.00 | 0.00 | 0.00 | 33 | 1012.5 |
| 20260501181558 | 18 | 3 | 11.3 | 22.5 | 0.00 | 0.00 | 0.00 | 33 | 1012.9 |
| 20260501180044 | 18 | 321 | 1.6 | 16.1 | 0.00 | 0.00 | 0.00 | 33 | 1013.3 |
| 20260501174600 | 18 | 10 | 3.2 | 16.1 | 0.00 | 0.00 | 0.00 | 33 | 1013.4 |
| 20260501173005 | 18 | 23 | 8.0 | 16.1 | 0.00 | 0.00 | 0.00 | 33 | 1013.6 |
| 20260501171534 | 18 | 360 | 0.0 | 16.1 | 0.00 | 0.00 | 0.00 | 34 | 1014.0 |
| 20260501170027 | 17 | 351 | 0.0 | 12.9 | 0.00 | 0.00 | 0.00 | 34 | 1014.2 |
| 20260501164545 | 17 | 355 | 1.6 | 14.5 | 0.00 | 0.00 | 0.00 | 35 | 1014.5 |
| 20260501163031 | 17 | 18 | 1.6 | 14.5 | 0.00 | 0.00 | 0.00 | 33 | 1014.6 |
| 20260501161547 | 16 | 316 | 1.6 | 16.1 | 0.00 | 0.00 | 0.00 | 37 | 1014.8 |